Weather History for NW Arkansas Airport, AR

Change the Weather History Date:

Monday, September 3, 2012

  Actual Average Record
Temperature  
Mean Temperature 84 °F -  
Max Temperature 99 °F - - ()
Min Temperature 70 °F - - ()
Cooling Degree Days 19    
Growing Degree Days 34 (Base 50)    
Moisture  
Dew Point 68 °F    
Average Humidity 63    
Maximum Humidity 93    
Minimum Humidity 33    
Precipitation  
Precipitation 0.00 in - - ()
Sea Level Pressure  
Sea Level Pressure 29.87 in    
Wind  
Wind Speed 2 mph (WSW)    
Max Wind Speed 10 mph    
Max Gust Speed -    
Visibility 10 miles    
Events      
T = Trace of Precipitation, MM = Missing Value Source: NWS Daily Summary

Daily Weather History Graph

Daily Weather History Graph

Search for Another Location

Airport:

Trip Planner

Search our weather history database for the weather conditions in past years. The results will help you decide how hot, cold, wet, or windy it might be!

Date:

Astronomy

Sep. 03, 2012 Rise Set
Actual Time 6:50 AM CDT 7:41 PM CDT
Civil Twilight 6:24 AM CDT 8:07 PM CDT
Nautical Twilight 5:53 AM CDT 8:38 PM CDT
Astronomical Twilight 5:21 AM CDT 9:10 PM CDT
Moon 9:09 PM CDT (9/3) 9:51 AM CDT (9/3)
Length of Visible Light 13h 43m
Length of Day
12h 50m
Waning Gibbous, 90% of the Moon is Illuminated
Sep 3
Waning Gibbous
Sep 8
Last Quarter
Sep 15
New
Sep 22
First Quarter
Sep 29
Full

Hourly Weather History & Observations

Time (CDT) Temp. Heat Index Dew Point Humidity Pressure Visibility Wind Dir Wind Speed Gust Speed Precip Events Conditions
12:53 AM 73.9 °F - 69.1 °F 85% 29.89 in 10.0 mi Calm Calm - N/A   Clear
1:53 AM 73.9 °F - 69.1 °F 85% 29.89 in 10.0 mi Calm Calm - N/A   Clear
2:53 AM 75.9 °F - 69.1 °F 79% 29.89 in 10.0 mi Calm Calm - N/A   Clear
3:53 AM 73.0 °F - 69.1 °F 87% 29.88 in 10.0 mi Calm Calm - N/A   Clear
4:53 AM 72.0 °F - 69.1 °F 91% 29.88 in 10.0 mi Calm Calm - N/A   Clear
5:53 AM 71.1 °F - 68.0 °F 90% 29.89 in 10.0 mi Calm Calm - N/A   Clear
6:53 AM 70.0 °F - 68.0 °F 93% 29.91 in 10.0 mi Calm Calm - N/A   Clear
7:53 AM 73.0 °F - 70.0 °F 90% 29.91 in 10.0 mi Calm Calm - N/A   Clear
8:53 AM 78.1 °F - 70.0 °F 76% 29.92 in 10.0 mi South 4.6 mph - N/A   Clear
9:53 AM 84.0 °F 87.8 °F 69.1 °F 61% 29.92 in 10.0 mi SW 6.9 mph - N/A   Clear
10:53 AM 88.0 °F 91.4 °F 68.0 °F 51% 29.91 in 10.0 mi West 6.9 mph - N/A   Clear
11:53 AM 91.0 °F 95.6 °F 69.1 °F 48% 29.90 in 10.0 mi Variable 6.9 mph - N/A   Clear
12:53 PM 95.0 °F 100.7 °F 69.1 °F 43% 29.89 in 10.0 mi West 8.1 mph - N/A   Clear
1:53 PM 96.1 °F 99.9 °F 66.9 °F 38% 29.88 in 10.0 mi SW 6.9 mph - N/A   Clear
2:53 PM 98.1 °F 101.8 °F 66.0 °F 35% 29.86 in 10.0 mi West 10.4 mph - N/A   Clear
3:53 PM 98.1 °F 100.7 °F 64.0 °F 33% 29.84 in 10.0 mi SW 8.1 mph - N/A   Clear
4:53 PM 98.1 °F 100.7 °F 64.0 °F 33% 29.83 in 10.0 mi West 8.1 mph - N/A   Clear
5:53 PM 97.0 °F 99.3 °F 64.0 °F 34% 29.83 in 10.0 mi WSW 5.8 mph - N/A   Clear
6:53 PM 96.1 °F 99.3 °F 66.0 °F 37% 29.82 in 10.0 mi Calm Calm - N/A   Clear
7:53 PM 89.1 °F 94.1 °F 70.0 °F 53% 29.83 in 10.0 mi Calm Calm - N/A   Clear
8:53 PM 84.0 °F 89.6 °F 72.0 °F 67% 29.84 in 10.0 mi Calm Calm - N/A   Clear
9:53 PM 82.0 °F 86.7 °F 72.0 °F 71% 29.85 in 10.0 mi Calm Calm - N/A   Clear
10:53 PM 80.1 °F 83.6 °F 71.1 °F 74% 29.85 in 10.0 mi Calm Calm - N/A   Clear
11:53 PM 80.1 °F 82.9 °F 69.1 °F 69% 29.86 in 10.0 mi SSW 3.5 mph - N/A   Clear